Дата Пункты Температура Давл., мм. Влажн., % Ветер Погодные явления
Воздуха Воды Направл. Скорость
20.09.14 05:00 Одесса 19.0 21.0 762 48 Пд 2 18 часов
20.09.14 02:00 Одесса 20.0 21.0 762 52 Пд-С 3 15 часов
20.09.14 11:00 Одесса 20.0 20.0 763 63 С 4 12 часов
20.09.14 08:00 Одесса 16.0 20.0 763 64 Пн 2 09 часов
20.09.14 05:00 Одесса 12.0 20.0 763 74 Пн-З 1 06 часов
20.09.14 02:00 Одесса 14.0 20.0 763 81 Пн-С 1 03 часа
19.09.14 08:00 Одесса 15.0 20.0 764 43 Пн-З 1 21 час
19.09.14 05:00 Одесса 20.0 20.0 763 29 Пд 1 18 часов
19.09.14 02:00 Одесса 21.0 20.0 764 36 С 2 15 часов
19.09.14 11:00 Одесса 19.0 20.0 765 41 Пн-С 3 12 часов
19.09.14 08:00 Одесса 15.0 20.0 765 54 Пн 4 09 часов
19.09.14 05:00 Одесса 11.0 21.0 764 62 Пн-З 2 06 часов
19.09.14 02:00 Одесса 14.0 21.0 764 58 Пн 2 03 часа
18.09.14 08:00 Одесса 19.0 21.0 764 46 Пн 4 21 час
18.09.14 05:00 Одесса 20.0 21.0 763 37 Пн-С 6 18 часов
18.09.14 02:00 Одесса 21.0 21.0 763 44 Пн-С 5 15 часов
18.09.14 11:00 Одесса 19.0 21.0 763 51 Пн-С 6 12 часов
18.09.14 08:00 Одесса 16.0 21.0 763 60 Пн-С 7 09 часов
18.09.14 05:00 Одесса 16.0 21.0 762 66 Пн-С 8 06 часов
18.09.14 02:00 Одесса 18.0 21.0 761 62 Пн-С 9 03 часа
Количество строк
441 442 443 444 445 446 447 448
Page 445 of 448